Flag for Germany Weather past 2 weeks in Herten, North Rhine-Westphalia, Germany

Now
51 °F

Light freezing rain. Low clouds.


Feels Like: 48 °F
Forecast: 43 / 53 °F
Wind: 6 mph from Southwest

Location: Essen

Current Time: Dec 18, 2014 at 11:03:28 AM

Latest Report: Dec 18, 2014 at 10:00 AM


Visibility: 1 mi

Pressure: 29.84 "Hg

Humidity: 100%

Dew point: 51 °F

Location of HertenLocation

Historic Weather in Herten — Graph

°F

Herten temperature yesterday

Maximum temperature yesterday: 49 °F (at 10:00 PM)
Minimum temperature yesterday: 37 °F (at 12:00 AM)
Average temperature yesterday: 42 °F

Past Weeks' High & Low Weather Summary

 TemperatureHumidityPressure
High51 °F (Dec 18, 9:00 AM)100% (Dec 6, 3:00 AM)30.37 "Hg (Dec 6, 3:00 AM)
Low28 °F (Dec 3, 6:00 PM)65% (Dec 7, 3:00 PM)29.38 "Hg (Dec 12, 3:00 PM)
Average39 °F92%29.97 "Hg
* Reported Dec 3 10:00 AM — Dec 18 10:00 AM, Herten, Weather by CustomWeather, © 2014

Note: Actual official high and low records may vary slightly from our data, if they occured in-between our weather recording intervals... More about our weather records

Advertising

Herten weather history for previous 24 hours

 ConditionsComfort  
Time TempWeatherWind HumidityBarometerVisibility
10:00 AM
Dec 18
51 °FLight freezing rain. Low clouds.6 mph100%29.84 "Hg1 mi
9:00 AM51 °FLow clouds.6 mph100%29.83 "Hg6 mi
8:00 AM50 °FDrizzle. Low clouds.6 mph100%29.82 "Hg2 mi
7:00 AM49 °FDrizzle. Low clouds.6 mph100%29.81 "Hg1 mi
6:00 AM49 °FDrizzle. Low clouds.5 mph100%29.82 "Hg1 mi
5:00 AM49 °FDrizzle. Low clouds.5 mph100%29.82 "Hg1 mi
4:00 AM50 °FLow clouds.6 mph100%29.82 "Hg2 mi
3:00 AM49 °FLow clouds.6 mph100%29.83 "Hg1 mi
2:00 AM49 °FLow clouds.6 mph100%29.83 "Hg1 mi
1:00 AM49 °FDrizzle. Low clouds.5 mph100%29.83 "Hg1 mi
12:00 AM49 °FDrizzle. Low clouds.3 mph100%29.82 "Hg1 mi
11:00 PM
Dec 17
49 °FDrizzle. Low clouds.5 mph100%29.81 "Hg1 mi
10:00 PM49 °FLow clouds.5 mph100%29.79 "Hg2 mi
9:00 PM48 °FDrizzle. Low clouds.5 mph100%29.77 "Hg1 mi
8:00 PM48 °FLow clouds.5 mph100%29.74 "Hg1 mi
7:00 PM48 °FLow clouds.5 mph100%29.71 "Hg1 mi
6:00 PM47 °FDrizzle. Low clouds.3 mph100%29.69 "Hg1 mi
5:00 PM46 °FDrizzle. Low clouds.5 mph100%29.67 "Hg1 mi
4:00 PM45 °FLight freezing rain. Low clouds.5 mph100%29.65 "Hg2 mi
3:00 PM44 °FDrizzle. Low clouds.5 mph100%29.63 "Hg1 mi
2:00 PM42 °FDrizzle. Low clouds.6 mph100%29.61 "Hg2 mi
1:00 PM41 °FLight freezing rain. Low clouds.6 mph100%29.62 "Hg1 mi
12:00 PM40 °FLight freezing rain. Low clouds.7 mph100%29.63 "Hg2 mi
11:00 AM39 °FLight freezing rain. Low clouds.7 mph99%29.65 "Hg2 mi
Weather by CustomWeather, © 2014

See weather overviewHow to use our weather pages